This demonstration page uses our WeatherBlox Daily Observations layout. Learn more.

Left ArrowRight Arrow

Hourly Observations for September 11, 2022

Temp ( °F °C ) Dew Point ( °F °C ) Humidity (%) Winds ( mph kmh ) Pressure ( in mb ) Visibility ( mi km ) Precip ( " mm )
12:53 am 00:53 Clear 77 25 68 20 74 74 NNE 9 15 29.95 1014 10 16 0.00 0.00
1:53 am 01:53 Clear 77 25 66 18.9 69 69 NE 10 17 29.93 1014 10 16 0.00 0.00
2:53 am 02:53 Clear 77 25 65 18.3 66 66 NNE 9 15 29.92 1013 10 16 0.00 0.00
3:53 am 03:53 Clear 76 24.4 65 18.3 69 69 N 8 13 29.92 1013 10 16 0.00 0.00
4:53 am 04:53 Mostly Cloudy 76 24.4 66 18.9 71 71 N 10 17 29.93 1013 10 16 0.00 0.00
5:53 am 05:53 Cloudy 76 24.4 65 18.3 69 69 N 8 13 29.95 1014 10 16 0.00 0.00
6:53 am 06:53 Mostly Cloudy 77 25 64 17.8 64 64 NE 6 9 29.97 1015 10 16 0.00 0.00
7:53 am 07:53 Cloudy 80 26.7 64 17.8 58 58 VRB 3 6 29.99 1016 10 16 0.00 0.00
8:53 am 08:53 Mostly Cloudy 81 27.2 63 17.2 54 54 Calm 30.00 1016 10 16 0.00 0.00
9:53 am 09:53 Sunny 83 28.3 66 18.9 57 57 SW 8 13 30.00 1016 10 16 0.00 0.00
10:53 am 10:53 Partly Cloudy 84 28.9 67 19.4 57 57 S 14 22 30.00 1016 10 16 0.00 0.00
11:53 am 11:53 Partly Cloudy 86 30 69 20.6 57 57 SSW 14 22 30.00 1016 10 16 0.00 0.00
12:53 pm 12:53 Partly Cloudy 84 28.9 70 21.1 63 63 S 14 22 29.98 1015 10 16 0.00 0.00
1:53 pm 13:53 Sunny 83 28.3 70 21.1 65 65 S 17 28 29.97 1015 10 16 0.00 0.00
2:53 pm 14:53 Mostly Cloudy 84 28.9 70 21.1 63 63 S 17 28 29.96 1015 10 16 0.00 0.00
3:53 pm 15:53 Mostly Cloudy 83 28.3 71 21.7 67 67 S 14 22 29.96 1015 10 16 0.00 0.00
4:53 pm 16:53 Cloudy 82 27.8 70 21.1 67 67 S 13 20 29.97 1015 10 16 0.00 0.00
5:53 pm 17:53 Mostly Cloudy 80 26.7 71 21.7 74 74 S 12 19 29.98 1015 10 16 0.00 0.00
6:53 pm 18:53 Mostly Cloudy 80 26.7 71 21.7 74 74 S 8 13 30.00 1016 10 16 0.00 0.00
7:53 pm 19:53 Cloudy 80 26.7 72 22.2 76 76 S 5 7 30.03 1017 10 16 0.00 0.00
8:53 pm 20:53 Cloudy 78 25.6 72 22.2 82 82 W 5 7 30.04 1017 10 16 0.01 0.13
9:53 pm 21:53 Cloudy 76 24.4 73 22.8 91 91 NNW 8 13 30.05 1018 10 16 0.01 0.25
10:53 pm 22:53 Cloudy 76 24.4 71 21.7 85 85 WNW 10 17 30.05 1018 10 16 0.00 0.00
11:53 pm 23:53 Cloudy 77 25 70 21.1 79 79 N 10 17 30.05 1018 10 16 0.00 0.00

Powered by AerisWeather